P/2012 O3 ( McNaught ) 2022

Japanese version
Home page
Updated on November 1, 2021

---------------------------------------------------------------------

* Profile

* Orbital Elements

Epoch 2022 May 21.0 TT = JDT 2459720.5
T 2022 May 29.76963 TT                                  MPC
q   1.6139455            (2000.0)            P               Q
n   0.10076272     Peri.  344.75291     +0.78337016     +0.61093361
a   4.5737187      Node   336.41403     -0.53616361     +0.57107983
e   0.6471262      Incl.   16.61589     -0.31441975     +0.54829550
P   9.78
From 291 observations 2012 July 23-2013 Feb. 8, mean residual 0".5.

* Magnitudes Graph

        m1 = 16.5 + 5 log d + 10.0 log r

---------------------------------------------------------------------

The orbital elements are published on M.P.E.C. 2013-C52.
The magnitudes graphs are made with Comet for Windows.

---------------------------------------------------------------------

Copyright(C) Seiichi Yoshida (comet@aerith.net). All rights reserved.